Location: ???????
(55.3754°N, 39.3545°E)
Time: 08:00:13
(UTC+00:00)

ARIANE 5 R/B - Pass Details

Date: 14 April 2026
Orbit: 614 x 648 km, 98.0° (Epoch: 14 September)

Event Time Altitude Azimuth Distance (km) Brightness Sun altitude
Exits shadow 20:26:44 88° 226° (SW) 627 2.4 -23.9°
Maximum altitude 20:26:45 89° 252° (WSW) 627 2.4 -23.9°
Drops below altitude 10° 20:31:07 10° 344° (NNW) 2,004 6.3 -24.1°
Sets 20:33:20 0° 345° (NNW) 2,920 7.5 -24.2°
